Home > Weather > Herford > Past weeks

Flag for Germany Past Weather in Herford, North Rhine-Westphalia, Germany — Yesterday and Last 2 Weeks

Now
81 °F

Partly sunny.


Feels Like: 82 °F
Forecast: 65 / 90 °F
Wind: 6 mph from Northeast

Location: Bueckeburg

Current Time: Aug 27, 2016 at 8:57:38 PM

Latest Report: Aug 27, 2016 at 8:20 PM


Visibility: N/A

Pressure: 29.98 "Hg

Humidity: 58%

Dew Point: 64 °F

Location of HerfordLocation

Past Weather in Herford — Graph

°F

Herford Temperature Yesterday

Maximum temperature yesterday: 93 °F (at 4:20 PM)
Minimum temperature yesterday: 72 °F (at 12:20 AM)
Average temperature yesterday: 81 °F

High & Low Weather Summary for the Past Weeks

 TemperatureHumidityPressure
High93 °F (Aug 26, 4:20 PM)100% (Aug 16, 4:20 AM)30.33 "Hg (Aug 16, 4:20 AM)
Low46 °F (Aug 17, 5:01 AM)23% (Aug 25, 5:20 PM)29.80 "Hg (Aug 18, 2:20 PM)
Average67 °F69%30.07 "Hg
* Reported Aug 12 7:20 PM — Aug 27 7:20 PM, Herford, Weather by CustomWeather, © 2016

Note: Actual official high and low records may vary slightly from our data, if they occured in-between our weather recording intervals... More about our weather records

Advertising

Herford Weather History for the Previous 24 Hours

Scroll right to see more
 ConditionsComfort  
Time TempWeatherWind HumidityBarometerVisibility
7:20 PM
Sat, Aug 27
82 °FWarm.7 mph55%30.01 "HgN/A
6:20 PM84 °FWarm.9 mph51%30.01 "HgN/A
5:20 PM86 °FWarm.10 mph49%30.04 "HgN/A
4:20 PM86 °FWarm.12 mph49%30.04 "HgN/A
3:20 PM84 °FWarm.10 mph48%30.07 "HgN/A
2:20 PM82 °FWarm.10 mph51%30.07 "HgN/A
1:20 PM81 °FWarm.10 mph54%30.09 "HgN/A
12:20 PM77 °FWarm.12 mph65%30.09 "HgN/A
11:20 AM73 °FMild.10 mph74%30.12 "HgN/A
10:20 AM70 °FMild.7 mph78%30.12 "HgN/A
9:20 AM66 °FMild.9 mph88%30.12 "HgN/A
8:20 AM64 °FMild.8 mph88%30.12 "HgN/A
7:20 AM63 °FMild.5 mph94%30.12 "HgN/A
6:20 AM63 °FMild.5 mph94%30.12 "HgN/A
5:20 AM63 °FPassing clouds.3 mph94%30.12 "Hg4 mi
4:20 AM64 °FPassing clouds.3 mph88%30.12 "HgN/A
3:20 AM64 °FPassing clouds.2 mph88%30.12 "HgN/A
2:20 AM66 °FPassing clouds.2 mph83%30.12 "HgN/A
1:20 AM68 °FPassing clouds.3 mph78%30.12 "HgN/A
12:20 AM70 °FPassing clouds.6 mph73%30.09 "HgN/A
11:20 PM
Fri, Aug 26
72 °FPassing clouds.3 mph73%30.09 "HgN/A
10:20 PM75 °FPassing clouds.9 mph69%30.07 "HgN/A
9:20 PM79 °FScattered clouds.8 mph61%30.07 "HgN/A
8:20 PM82 °FPassing clouds.7 mph58%30.04 "HgN/A
Weather by CustomWeather, © 2016

See weather overviewHow to use our weather pages